Regional Weather Roundup
Issued by NWS

Home | Current Version | Previous Version | Graphics & Text | Print | Product List | Glossary On
Versions: 1 2 3 4 5 6 7 8 9 10 11 12 13 14 15 16 17 18 19 20 21 22 23 24 25 26 27
000
ASUS45 KBOU 190607
RWRCO

WEATHER ROUNDUP FOR COLORADO
NATIONAL WEATHER SERVICE DENVER/BOULDER CO
1200 AM MDT THU OCT 19 2017

NOTE: "FAIR" INDICATES FEW OR NO CLOUDS BELOW 12000 FEET WITH NO
SIGNIFICANT WEATHER AND/OR OBSTRUCTIONS TO VISIBILITY.

COZ001>005-013-030-031-190700-
...NORTHWEST COLORADO...

CITY           SKY/WX    TMP DP  RH WIND       PRES   REMARKS
CRAIG          FAIR      29  21  72 CALM      30.20S
HAYDEN         FAIR      42  15  33 E13       30.22F
MEEKER         FAIR      37  17  44 NE5       30.21S
RABBIT EARS PA FAIR      43   9  24 SW3       30.41S
STEAMBOAT SPGS FAIR      37  15  40 CALM      30.24S
WALDEN         NOT AVBL
$$

COZ006>008-011-190700-
...WEST CENTRAL VALLEYS...

CITY           SKY/WX    TMP DP  RH WIND       PRES   REMARKS
GRAND JUNCTION FAIR      52  19  27 E13       30.12S
MONTROSE       FAIR      45  18  34 SE8       30.20S
EAGLE          FAIR      35  16  45 E3        30.27S
RIFLE          FAIR      41  19  41 CALM      30.18S
DELTA          FAIR      46  16  30 CALM      30.17S
NUCLA          FAIR      46  14  27 SE7       30.21S
$$

COZ017>023-064>068-190700-
...SOUTHWEST COLORADO...

CITY           SKY/WX    TMP DP  RH WIND       PRES   REMARKS
DURANGO        FAIR      43  22  43 N5        30.22S
CORTEZ         FAIR      41  26  55 NE5       30.18S
PAGOSA SPRINGS FAIR      37  16  41 CALM      30.29F
TELLURIDE      NOT AVBL
WOLF CREEK PAS NOT AVBL
$$

COZ009-010-012-014-032>034-037-058>063-190700-
...CENTRAL COLORADO...

CITY           SKY/WX    TMP DP  RH WIND       PRES   REMARKS
ASPEN          FAIR      40  14  34 SW12      30.28F
BUENA VISTA    FAIR      36  12  37 CALM      30.32F
COPPER MTN     FAIR      45  -4  13 CALM      30.51S
BERTHOUD PASS  FAIR      36  28  75 W10       30.52F
COTTONWOOD PAS FAIR      54  -2  10 SW9       30.40F
GUNNISON       FAIR      31  17  56 CALM      30.33S
KREMMLING      FAIR      34  19  55 CALM      30.30S
LEADVILLE      FAIR      31   7  36 SE5       30.39S WCI  26
SALIDA         NOT AVBL
SUNLIGHT       FAIR      41  -4  15 SE5       30.46S
WILKERSON PASS FAIR      39   3  22 SW9       30.50S
$$

COZ069>075-190700-
...SAN LUIS VALLEY/SANGRE DE CRISTO MOUNTAINS...

CITY           SKY/WX    TMP DP  RH WIND       PRES   REMARKS
ALAMOSA        FAIR      30  17  58 NE3       30.28S
DEL NORTE      FAIR      40  15  35 W8        30.31S
LA VETA PASS   FAIR      46  12  25 CALM      30.53S
SAGUACHE       FAIR      39  12  33 NW9       30.31F
$$

COZ035-036-038>040-190700-
...NORTHERN COLORADO FRONT RANGE...

CITY           SKY/WX    TMP DP  RH WIND       PRES   REMARKS
DENVER INTL AP FAIR      51  23  33 S10       30.13F
DMNS CITY PARK   N/A     53  18  25 S5G14     30.12F
AURORA         PTCLDY    54  23  29 S15       30.14F
FRONT RANGE AP FAIR      52  27  37 S12G17    30.14F
ERIE MUNI ARPT FAIR      41  28  57 SW6       30.17F
BOULDER MUN AP FAIR      50  23  34 CALM      30.12F
CENTENNIAL     FAIR      56  23  27 S9        30.16F
BROOMFIELD     FAIR      54  18  24 CALM      30.14F
FORT COLLINS   FAIR      45  30  55 N7        30.12F
LONGMONT       FAIR      42  29  60 SW5       30.13F
$$

COZ041-046-047-076>085-087-088-190700-
...PIKES PEAK/PALMER DIVIDE AND SOUTHERN FOOTHILLS...

CITY           SKY/WX    TMP DP  RH WIND       PRES   REMARKS
COLO. SPRINGS  FAIR      45  24  43 NE6       30.23F
A. F. ACADEMY  FAIR      37  20  51 NW7       30.23F
SCHRIEVER AFB  FAIR      52  20  28 NE5       30.23F
CHEYENNE MTN   NOT AVBL
ELLICOTT       FAIR     N/A N/A N/A E8        30.21S
FALCON         FAIR      48  20  33 S6        30.26F
FORT CARSON    FAIR      48  25  40 NW5       30.20S
LIMON          FAIR      31  26  82 CALM      30.18F
MONUMENT HILL  NOT AVBL
CANON CITY     CLEAR     48  19  32 W10       30.17F
WALSENBURG     FAIR      41  21  45 S3        30.20S
TRINIDAD       FAIR      50  23  34 W13       30.18F
$$

COZ042>045-048>051-090-091-190700-
...NORTHEAST COLORADO...

CITY           SKY/WX    TMP DP  RH WIND       PRES   REMARKS
GREELEY ARPT   FAIR      38  29  70 W7        30.11F
AKRON          FAIR      50  28  42 S15       30.12F
BURLINGTON     FAIR      45  33  63 S10       30.13F
WRAY           FAIR      46  32  57 S7        30.12R
YUMA           NOT AVBL
STERLING       FAIR      50  32  50 SW7       30.10S
HOLYOKE        FAIR      43  34  70 SW3       30.11S
FORT MORGAN    FAIR      48  21  34 SE3       30.12F
$$

COZ086-089-092>099-190700-
...SOUTHEAST COLORADO...

CITY           SKY/WX    TMP DP  RH WIND       PRES   REMARKS
PUEBLO         FAIR      48  27  44 CALM      30.13F
LA JUNTA       FAIR      51  30  44 NE3       30.11F
LAMAR          FAIR      41  29  62 CALM      30.08F
SPRINGFIELD      N/A     42  35  76 W5        30.11F
$$




USA.gov is the U.S. government's official web portal to all federal, state and local government web resources and services.